Temperature
21 20 20 21 22 23 23 22 22 23 25 24 23 22 22 25 25 24 23 22 22 22 22 23 22 22 21 20 20 20 20 20 19 19 19 18 18 17 17 17 17 17 17 17
20 20 22 23 23 23 23 22 22 22 24 25 23 23 23 23 24 24 22 22 23 22 22 22 22 21 20 20 19 19 19 19 19 19 18 18 18 17 17 17 17 17 17 17
19 21 23 23 23 23 23 22 22 22 23 23 24 22 21 22 23 22 22 23 23 23 22 21 21 21 20 19 18 18 18 18 18 18 17 17 17 17 17 17 17 17 17 17
20 22 22 22 23 23 22 23 23 24 22 20 22 19 20 21 22 21 21 21 22 22 22 21 21 20 20 19 18 17 17 17 17 17 16 16 16 16 16 17 17 17 17 17
20 22 22 22 23 24 22 24 24 23 22 20 20 20 19 21 20 21 21 21 22 22 22 21 20 20 19 18 17 17 16 16 16 16 16 16 16 15 16 16 16 16 17 17
20 22 23 23 24 24 24 23 21 19 19 19 20 20 19 19 20 21 21 22 23 22 22 21 20 19 19 18 17 17 16 16 16 15 15 15 15 15 15 15 15 16 16 16
20 21 23 24 23 24 23 19 18 19 17 18 19 20 19 21 21 21 21 22 22 22 22 21 20 19 19 18 17 17 17 16 16 15 15 15 15 15 15 15 15 15 16 16
19 20 22 23 22 21 21 19 18 18 18 18 20 20 20 22 22 23 23 23 22 22 22 21 21 20 19 18 18 17 17 16 16 15 15 15 15 15 16 16 15 15 15 15
19 20 23 23 23 22 21 19 19 18 19 19 19 20 21 21 22 21 22 22 22 22 22 22 21 20 19 19 18 17 17 17 16 15 15 16 16 16 16 16 15 16 16 16
19 19 22 23 24 23 21 20 17 17 18 18 19 20 18 20 20 21 20 21 23 23 22 21 21 20 19 19 18 17 17 16 16 16 16 16 16 16 16 16 16 16 16 17
19 19 20 22 22 21 21 21 19 16 17 17 17 18 19 20 20 20 20 23 23 23 22 22 21 20 19 18 18 17 16 16 16 16 16 16 16 16 16 16 16 16 16 16
17 16 17 19 20 20 20 19 17 16 17 16 15 17 20 20 20 20 21 23 23 23 23 22 21 20 19 18 18 17 16 16 16 16 16 16 16 16 16 16 16 16 16 16
17 15 16 18 18 19 19 19 16 15 15 15 15 17 20 19 20 22 23 23 23 23 23 22 21 20 20 19 18 17 17 16 16 16 16 16 16 16 16 16 16 16 16 16
16 14 16 17 17 18 19 19 18 16 15 15 16 17 19 20 20 21 22 23 23 23 23 22 21 20 20 19 19 18 17 17 16 16 16 16 16 16 16 16 16 16 16 16
15 15 16 16 18 18 18 19 19 18 17 16 17 18 19 19 20 21 23 23 22 22 22 22 22 21 20 20 19 18 17 17 17 16 16 16 16 15 15 16 16 16 16 15
14 15 15 16 18 17 17 18 18 18 18 18 18 18 19 20 21 21 22 23 22 22 22 22 22 21 21 20 20 19 18 17 17 16 16 15 15 15 15 15 15 15 15 15
14 14 14 14 16 16 16 17 18 18 19 19 18 19 19 19 19 21 22 23 23 23 22 22 21 20 20 19 19 19 19 18 17 17 16 16 15 15 15 15 15 15 15 15
14 13 13 13 15 15 17 17 18 18 19 19 19 19 19 19 21 22 23 23 22 22 21 21 20 19 19 18 18 18 18 18 17 17 16 16 15 15 15 15 15 15 15 15
14 13 13 13 14 15 17 18 18 18 19 20 20 20 20 20 20 20 22 22 22 22 21 20 19 18 17 17 18 18 18 17 17 17 16 16 16 15 15 15 15 15 15 14
12 12 12 13 14 14 16 18 19 19 19 20 20 20 20 19 18 18 21 21 21 20 20 19 18 17 16 16 16 16 16 16 16 16 16 16 16 15 15 15 14 14 14 14
13 13 12 13 13 15 17 18 19 18 19 21 22 22 22 19 20 21 20 20 20 19 18 18 17 16 16 15 15 15 15 15 14 15 15 15 15 15 14 14 14 14 13 13
13 13 13 13 14 15 18 18 18 19 21 22 23 23 23 22 21 20 19 19 19 19 18 16 16 15 15 14 14 14 14 13 13 13 13 14 14 14 13 13 13 13 13 13
13 13 13 14 15 17 17 17 18 19 21 23 23 23 22 21 20 19 19 18 18 17 16 15 15 14 14 14 14 14 13 13 12 12 12 12 12 13 13 13 13 13 12 12
12 13 13 13 15 16 16 18 18 20 22 23 23 22 22 21 20 19 19 18 17 16 16 15 14 14 14 14 14 13 13 12 12 12 11 11 11 11 12 12 12 12 12 12
12 12 12 12 14 15 16 16 17 18 21 23 22 22 22 21 20 19 18 17 17 16 16 15 15 14 14 14 13 13 13 12 12 11 11 11 11 11 11 11 12 12 12 12
12 12 12 12 13 12 13 15 16 17 20 22 22 22 21 21 21 19 18 17 17 16 16 16 15 14 14 14 14 13 12 12 12 11 11 11 11 11 11 11 11 11 11 11
Wind_Speed
3 3 2 5 5 5 5 6 7 8 10 5 8 11 12 11 6 4 8 8 9 8 6 5 5 5 7 7 7 8 8 6 6 5 5 5 5 4 3 4 7 9 13 14
3 3 6 8 9 9 10 9 9 9 10 7 6 7 7 7 7 9 14 12 10 9 6 5 5 4 5 6 6 6 7 6 5 4 3 2 2 2 2 3 4 8 10 11
7 6 7 11 12 10 9 8 8 8 7 7 4 7 7 6 1 7 12 11 10 12 11 9 6 4 5 6 8 8 8 7 6 4 2 1 2 2 2 2 3 5 10 11
7 9 10 13 17 12 9 9 9 7 3 5 2 5 10 6 4 6 8 8 9 9 9 9 9 7 6 5 6 7 8 7 6 5 4 3 3 2 2 2 1 3 7 9
8 7 10 12 16 14 10 9 6 4 2 3 3 3 9 1 7 8 8 8 8 8 9 10 10 10 8 7 6 6 7 7 7 7 6 4 4 3 3 4 4 4 4 3
9 7 8 9 6 5 5 1 6 5 4 4 6 6 7 5 8 7 6 7 8 8 8 8 8 9 8 8 7 7 7 7 7 8 7 7 8 8 8 7 6 4 3 2
7 7 8 8 6 4 4 6 3 4 2 6 6 5 8 5 6 8 9 9 9 9 9 8 9 10 10 10 9 8 8 7 7 7 7 8 9 9 10 9 6 5 4 3
5 7 6 7 11 8 6 10 7 6 5 5 5 5 6 3 5 8 8 9 9 9 9 10 11 10 10 11 10 9 8 8 8 8 7 8 8 6 6 8 8 7 6 5
7 6 6 5 7 11 7 7 9 6 3 3 6 3 6 5 3 5 8 9 9 10 10 10 10 10 10 11 11 10 9 8 8 8 8 7 7 7 8 8 7 7 7 6
9 7 8 5 4 4 7 8 7 5 4 4 5 4 6 8 9 9 9 10 10 9 9 9 10 11 10 11 10 9 9 8 7 8 8 7 8 8 8 8 8 6 5 4
2 6 6 3 3 6 3 2 3 5 5 6 4 7 7 11 12 11 12 12 11 11 11 10 9 10 9 9 9 8 7 6 6 7 8 8 8 8 9 8 8 8 7 8
5 3 3 5 5 1 4 4 5 4 6 5 5 8 8 9 10 10 11 10 10 11 11 10 9 9 9 9 9 8 7 6 6 7 6 7 7 8 9 9 9 9 9 8
1 3 2 7 6 6 3 2 4 4 2 3 4 8 6 4 6 8 10 10 10 10 10 9 9 9 10 10 9 9 8 8 7 6 6 5 6 7 8 9 9 8 7 5
5 5 6 6 7 4 5 5 5 6 4 5 8 9 9 7 8 9 9 9 11 12 12 12 11 10 10 10 11 11 10 9 8 7 7 7 6 6 7 6 6 5 4 3
4 4 5 7 8 5 6 9 8 7 8 10 10 11 12 9 8 9 8 7 9 10 10 13 13 11 10 11 12 12 11 10 10 9 9 9 7 7 6 6 6 5 4 5
2 2 1 5 5 4 7 11 11 11 9 10 12 14 12 9 6 6 5 7 10 11 12 13 12 11 11 12 13 13 11 11 11 11 11 9 8 8 8 8 7 6 5 4
3 3 1 5 5 7 9 10 10 8 9 11 15 15 9 5 6 8 9 9 9 9 8 7 6 6 7 8 10 12 12 11 12 13 12 11 10 10 9 8 7 6 5 3
8 5 2 2 2 7 10 7 7 8 12 13 12 10 9 9 8 7 8 9 9 8 7 6 6 5 3 1 4 7 8 10 12 12 12 12 11 11 10 9 9 7 5 4
7 8 4 3 2 8 12 8 4 5 9 10 9 7 7 6 4 2 1 6 8 8 8 7 7 6 5 6 3 4 4 6 9 10 10 11 12 12 11 11 9 7 5 4
6 5 5 4 2 5 10 8 7 5 7 8 1 6 7 8 4 4 1 6 9 9 8 8 7 7 7 6 6 8 6 4 3 6 8 10 12 13 12 10 8 5 4 5
2 2 4 4 3 8 11 9 4 1 6 5 2 6 8 7 6 7 9 8 9 9 9 8 8 7 6 5 8 9 8 6 3 2 2 5 7 8 9 8 6 5 5 5
3 3 4 4 4 8 5 8 4 6 6 1 3 5 6 6 9 11 11 9 10 9 8 8 7 6 5 6 9 8 6 3 5 5 5 4 4 5 6 7 6 6 7 6
1 2 2 4 7 8 11 12 17 16 10 3 3 4 7 9 9 9 9 9 8 8 7 5 6 5 3 4 7 7 4 5 6 5 3 3 4 4 4 5 6 5 5 4
3 1 2 6 11 14 17 16 20 14 7 6 6 7 9 9 9 10 10 9 8 7 6 6 5 4 2 3 3 5 5 5 5 4 3 2 3 3 2 3 5 5 5 4
4 2 2 6 10 14 13 14 20 20 7 5 5 5 8 10 11 11 10 10 9 7 6 6 6 5 5 5 4 3 3 4 4 3 3 3 3 3 3 3 2 3 4 5
7 7 6 6 6 9 17 23 25 25 15 4 4 2 4 8 12 12 11 11 9 8 7 5 5 5 4 3 4 4 4 5 4 3 3 2 2 2 3 4 4 8 4 5
Wind_Direction
17 65 242 245 221 223 251 253 264 271 279 281 251 242 249 255 252 180 147 146 131 119 107 87 74 102 123 138 147 156 160 164 155 154 161 174 200 209 205 217 206 175 166 174
38 284 261 270 265 254 254 258 265 279 288 293 265 256 258 272 247 189 164 164 154 137 127 109 93 105 135 152 161 161 169 168 167 164 157 155 172 193 202 209 194 172 164 160
197 234 264 278 276 260 246 233 244 259 307 344 312 309 307 313 6 152 163 167 160 156 153 148 141 139 147 157 165 174 181 183 180 173 137 86 77 52 82 123 186 165 149 149
225 233 238 259 271 265 258 244 244 262 293 292 334 291 288 255 211 190 186 173 170 161 155 156 153 157 168 173 162 160 177 192 197 188 191 177 159 172 160 152 211 134 134 146
236 229 225 237 256 250 241 248 250 265 255 300 307 268 287 175 202 211 204 187 175 170 171 171 165 165 169 167 168 172 178 194 197 198 199 171 151 141 122 107 86 91 102 122
246 248 229 225 255 232 218 57 13 43 71 303 250 200 276 241 206 187 196 193 182 186 197 188 167 159 165 169 174 175 181 195 192 190 181 164 159 149 137 118 107 110 116 98
285 262 237 223 246 286 110 90 14 337 15 251 260 206 247 248 184 172 184 191 190 193 193 187 174 172 171 174 179 176 175 185 188 188 183 173 173 167 153 141 138 140 128 104
259 277 250 213 198 193 182 150 173 204 214 266 307 244 257 251 177 175 175 177 184 188 189 190 186 181 177 178 179 176 175 179 182 187 191 184 180 165 142 144 154 156 148 149
230 261 289 252 190 155 164 186 177 151 234 265 281 294 329 303 245 181 181 185 193 192 192 192 186 180 177 177 180 181 178 182 182 182 180 179 176 158 150 154 160 159 160 164
211 259 286 290 113 144 152 149 107 136 188 237 269 232 226 233 237 230 214 210 212 205 197 190 181 179 180 181 184 185 187 191 187 178 178 181 181 169 161 160 163 164 169 179
186 223 292 343 190 208 159 157 144 153 173 177 233 262 225 206 215 220 223 220 216 206 198 191 185 179 172 171 176 181 187 189 194 189 181 181 186 178 168 171 175 177 186 194
8 58 304 305 319 355 145 182 155 184 240 192 191 263 259 230 237 227 227 227 217 202 195 185 178 172 166 166 169 168 166 171 191 194 185 180 177 175 178 185 189 190 190 195
58 101 355 336 339 6 36 103 135 144 137 195 202 261 287 246 251 244 235 228 201 189 184 174 172 177 177 172 170 169 167 168 173 175 171 163 159 168 184 192 194 194 191 200
144 148 180 212 238 255 263 253 177 152 174 229 230 252 286 297 295 288 259 220 188 183 180 179 185 190 188 180 177 178 179 174 171 171 171 174 174 171 181 192 199 203 204 223
109 156 206 238 257 238 234 254 258 238 208 210 237 240 248 256 269 282 260 201 181 182 184 189 195 198 195 187 186 186 186 181 176 179 189 194 189 184 188 206 217 218 217 221
84 181 271 285 284 298 267 251 248 252 242 232 241 251 246 244 241 261 241 191 190 194 195 201 205 204 202 197 194 195 194 189 184 190 203 200 186 187 196 206 211 213 213 206
176 155 122 278 310 343 284 249 237 235 229 230 240 244 242 221 218 225 220 204 197 186 182 189 200 205 213 216 207 204 203 191 193 201 205 199 191 190 197 197 194 198 197 188
172 158 193 270 12 261 258 263 249 263 265 247 239 233 211 207 211 219 198 172 158 142 128 118 108 95 74 112 200 204 196 190 198 202 199 195 192 194 189 186 191 192 186 195
173 157 155 152 235 280 288 282 246 251 277 269 247 218 184 168 101 350 221 146 140 132 128 119 112 100 61 37 52 117 155 187 199 202 194 192 191 192 188 191 193 187 185 202
63 109 128 132 168 258 266 290 326 344 311 309 148 160 158 136 137 226 152 102 103 105 107 106 99 85 63 40 63 79 87 109 184 211 201 193 192 191 190 190 186 183 189 212
54 65 126 149 204 260 268 294 313 202 265 296 137 156 162 181 195 164 129 117 115 112 109 101 87 73 61 70 81 74 70 70 72 89 136 182 193 192 186 180 174 185 194 206
184 184 188 165 212 252 340 347 306 271 281 204 142 162 162 152 128 130 134 132 125 119 113 105 97 86 75 92 97 90 85 90 84 79 82 100 137 180 186 172 170 178 179 185
229 210 217 220 242 287 335 310 295 294 271 207 145 155 143 139 148 146 148 143 132 128 132 130 124 114 100 113 120 122 150 136 109 93 83 86 103 117 146 161 162 163 164 164
299 293 255 276 281 309 314 317 316 293 232 180 170 162 158 165 163 157 155 147 141 145 149 149 144 155 202 207 168 161 166 144 118 113 114 114 114 118 144 159 159 157 166 172
278 314 296 279 301 318 315 325 332 324 286 174 186 180 165 163 167 167 162 156 159 167 167 160 170 201 236 241 227 201 159 128 104 96 116 121 124 117 99 93 95 176 185 178
230 228 234 253 287 297 295 303 314 318 298 240 174 177 169 165 171 166 163 162 167 175 173 178 197 219 252 233 205 180 151 133 119 97 108 125 121 101 100 110 80 51 73 118
Height
1500 1505 1509 1506 1504 1504 1504 1506 1507 1499 1487 1490 1493 1491 1486 1481 1481 1482 1485 1485 1486 1487 1488 1489 1489 1490 1490 1492 1493 1495 1496 1498 1500 1502 1504 1506 1508 1511 1513 1515 1518 1521 1523 1526
1504 1507 1500 1498 1499 1501 1502 1506 1506 1498 1487 1487 1488 1487 1482 1479 1478 1477 1479 1481 1483 1485 1486 1487 1488 1488 1489 1490 1491 1492 1494 1495 1497 1499 1502 1504 1506 1508 1510 1512 1515 1518 1521 1523
1507 1502 1497 1498 1498 1499 1499 1503 1502 1499 1490 1487 1488 1493 1487 1479 1476 1476 1477 1478 1480 1482 1484 1485 1486 1487 1488 1488 1489 1490 1492 1493 1495 1497 1500 1502 1503 1504 1506 1508 1511 1515 1518 1520
1501 1496 1497 1499 1496 1494 1501 1491 1491 1492 1497 1504 1496 1513 1492 1482 1480 1479 1479 1479 1479 1481 1482 1484 1485 1486 1487 1487 1488 1489 1491 1492 1493 1495 1497 1499 1500 1501 1503 1505 1508 1511 1515 1517
1498 1491 1494 1496 1491 1487 1490 1484 1486 1488 1494 1503 1500 1507 1498 1483 1483 1480 1478 1478 1479 1480 1482 1483 1484 1485 1485 1486 1486 1488 1489 1490 1492 1493 1494 1496 1497 1499 1500 1502 1505 1508 1511 1515
1492 1486 1486 1485 1481 1480 1480 1485 1490 1496 1503 1515 1502 1507 1503 1488 1479 1477 1476 1477 1478 1481 1482 1483 1483 1484 1484 1485 1485 1487 1487 1488 1489 1490 1491 1493 1495 1497 1499 1500 1503 1506 1510 1512
1493 1485 1478 1476 1481 1480 1482 1501 1518 1518 1523 1519 1496 1499 1495 1475 1471 1472 1474 1475 1477 1479 1480 1481 1482 1482 1482 1483 1484 1485 1486 1486 1487 1488 1489 1490 1493 1496 1498 1499 1502 1505 1508 1510
1501 1496 1477 1472 1475 1482 1484 1496 1517 1525 1524 1514 1494 1497 1487 1472 1470 1470 1472 1474 1475 1476 1477 1478 1479 1480 1480 1481 1482 1483 1484 1485 1486 1487 1488 1489 1492 1495 1497 1498 1501 1504 1507 1509
1496 1490 1470 1466 1465 1471 1482 1491 1492 1507 1508 1512 1504 1491 1482 1473 1473 1472 1472 1472 1473 1473 1474 1475 1476 1477 1478 1479 1480 1481 1483 1483 1484 1485 1487 1488 1491 1493 1496 1498 1501 1504 1506 1509
1484 1490 1474 1466 1465 1467 1472 1479 1495 1505 1514 1519 1505 1496 1495 1480 1476 1472 1470 1469 1469 1470 1471 1472 1473 1474 1476 1477 1478 1480 1481 1482 1483 1484 1485 1487 1489 1492 1495 1497 1499 1502 1504 1506
1482 1489 1481 1471 1472 1475 1477 1481 1487 1500 1504 1515 1517 1503 1475 1471 1467 1466 1464 1463 1464 1465 1467 1468 1470 1471 1473 1474 1476 1477 1479 1480 1481 1482 1483 1484 1486 1489 1491 1493 1496 1498 1500 1502
1486 1492 1494 1482 1474 1470 1475 1481 1492 1506 1506 1507 1512 1500 1463 1463 1461 1459 1458 1459 1460 1462 1463 1465 1467 1469 1470 1471 1473 1475 1476 1478 1479 1480 1481 1482 1484 1485 1487 1489 1492 1494 1496 1497
1487 1497 1504 1495 1489 1478 1477 1479 1487 1495 1502 1506 1510 1495 1461 1460 1458 1456 1454 1454 1455 1458 1460 1462 1464 1466 1467 1468 1470 1472 1473 1475 1476 1478 1479 1480 1481 1483 1485 1486 1488 1490 1492 1494
1484 1494 1499 1500 1493 1485 1481 1478 1481 1490 1501 1501 1495 1484 1467 1459 1456 1453 1451 1449 1450 1453 1455 1458 1460 1462 1464 1465 1466 1468 1470 1472 1473 1475 1476 1478 1479 1481 1483 1484 1486 1488 1490 1491
1483 1491 1488 1485 1479 1479 1479 1477 1475 1478 1481 1488 1478 1472 1463 1457 1454 1451 1448 1446 1448 1451 1453 1454 1456 1458 1460 1461 1463 1464 1466 1468 1470 1472 1474 1476 1477 1479 1481 1482 1484 1486 1488 1489
1484 1487 1486 1484 1476 1476 1476 1471 1469 1468 1467 1468 1465 1461 1451 1450 1449 1448 1446 1445 1446 1448 1449 1451 1453 1455 1456 1458 1459 1461 1462 1464 1466 1468 1470 1472 1474 1475 1477 1479 1481 1483 1485 1486
1484 1486 1490 1491 1481 1478 1479 1464 1460 1459 1455 1456 1457 1450 1444 1445 1445 1445 1445 1444 1444 1445 1448 1450 1452 1453 1454 1455 1457 1458 1459 1461 1462 1464 1465 1468 1469 1471 1473 1476 1478 1480 1482 1483
1479 1484 1490 1491 1487 1493 1469 1453 1453 1453 1448 1444 1441 1438 1438 1439 1440 1441 1440 1441 1442 1445 1448 1450 1450 1451 1451 1452 1453 1454 1456 1457 1458 1459 1461 1463 1465 1466 1469 1471 1474 1477 1479 1480
1470 1479 1488 1492 1492 1484 1463 1451 1451 1451 1446 1434 1432 1431 1434 1436 1439 1440 1440 1441 1443 1446 1447 1448 1449 1449 1449 1449 1449 1449 1450 1452 1453 1454 1456 1458 1461 1463 1465 1467 1470 1473 1475 1476
1473 1477 1486 1490 1491 1489 1464 1448 1448 1449 1449 1432 1429 1430 1433 1437 1445 1443 1441 1442 1443 1445 1447 1448 1448 1448 1448 1447 1447 1447 1447 1448 1449 1450 1452 1454 1456 1458 1461 1463 1466 1469 1471 1472
1481 1483 1485 1487 1488 1477 1454 1449 1449 1459 1452 1435 1432 1432 1433 1435 1436 1437 1439 1441 1443 1445 1446 1447 1448 1448 1447 1447 1446 1446 1446 1446 1447 1448 1448 1450 1451 1453 1456 1460 1463 1466 1467 1468
1479 1482 1483 1482 1484 1474 1451 1452 1452 1450 1439 1435 1433 1433 1432 1432 1433 1435 1437 1440 1442 1444 1445 1446 1447 1446 1446 1447 1447 1446 1446 1447 1447 1447 1447 1448 1448 1450 1453 1457 1459 1461 1463 1465
1476 1476 1476 1475 1469 1454 1454 1455 1450 1446 1441 1435 1433 1432 1432 1432 1433 1434 1436 1439 1441 1443 1444 1445 1445 1446 1447 1447 1447 1447 1447 1447 1447 1447 1447 1447 1448 1449 1451 1454 1456 1458 1460 1462
1476 1474 1473 1470 1460 1455 1453 1449 1443 1437 1435 1433 1433 1432 1432 1432 1433 1434 1436 1438 1440 1442 1443 1443 1444 1446 1447 1448 1448 1448 1448 1447 1447 1447 1447 1447 1448 1449 1450 1452 1454 1456 1458 1459
1478 1476 1474 1470 1463 1455 1447 1447 1446 1443 1436 1433 1432 1432 1431 1431 1431 1433 1434 1437 1439 1441 1442 1443 1444 1445 1447 1447 1448 1448 1448 1447 1447 1446 1446 1446 1447 1448 1450 1452 1453 1455 1456 1457
1476 1476 1475 1469 1465 1463 1452 1446 1444 1443 1438 1433 1431 1430 1430 1430 1429 1430 1433 1436 1438 1440 1442 1443 1444 1445 1446 1446 1446 1447 1447 1446 1446 1445 1445 1445 1446 1447 1448 1450 1452 1453 1454 1455